CAPE
0 477 46 0 708 814 596 729 818 795 823 881 1097 1203 1211 735 263 92 91 170 545 787 956 776 743 757 627 345 338 387 694 604 746 783 646 770 673 500 477 418 316 467 507
185 471 463 60 529 701 619 464 609 517 719 1001 1159 1174 936 417 275 204 69 123 404 767 852 586 618 746 433 221 209 775 759 573 530 349 371 390 494 529 368 322 264 411 430
260 661 737 263 307 462 475 427 435 516 488 503 917 790 688 631 662 509 221 128 159 261 628 715 446 692 429 479 96 646 699 457 287 196 146 137 421 546 374 158 200 347 330
264 578 876 491 463 618 521 462 437 460 462 375 359 623 696 761 793 762 618 345 150 141 166 229 652 446 248 410 205 679 599 377 193 84 125 129 224 239 156 110 273 270 120
73 165 311 567 605 433 308 677 676 580 493 399 405 416 463 704 742 790 941 898 686 242 233 368 490 526 338 120 381 605 537 216 60 9 138 157 211 130 93 246 193 95 82
0 0 0 24 229 296 563 802 757 600 477 403 395 444 548 430 329 439 574 720 691 814 722 561 414 321 472 133 140 493 485 137 5 176 134 196 91 75 17 95 43 89 64
0 0 0 0 0 4 69 150 448 652 544 532 425 400 423 474 595 453 372 330 352 456 500 414 663 497 179 304 155 661 258 89 201 90 89 199 199 28 37 70 51 23 5
0 0 0 0 0 0 0 1 4 41 277 468 406 359 320 336 342 418 436 431 373 402 482 385 410 331 137 262 319 434 146 69 68 62 50 89 115 228 69 68 56 46 37
0 0 0 0 0 0 0 0 0 0 0 0 3 17 108 235 296 294 281 305 297 333 668 306 292 285 179 243 294 188 93 18 21 5 0 1 57 205 169 88 3 0 0
0 0 0 0 0 0 0 0 0 0 0 0 0 0 2 99 209 391 430 379 658 591 595 406 293 265 238 266 119 118 0 0 0 0 0 2 2 18 23 91 14 0 4
0 0 0 0 0 0 0 0 0 0 0 0 0 0 8 31 36 61 106 241 289 502 606 473 285 228 141 171 79 36 12 0 0 9 0 0 0 9 39 124 26 3 41
0 0 0 0 0 0 0 0 0 0 0 0 0 0 2 1 1 2 1 141 247 304 377 452 425 256 162 199 100 30 60 32 19 28 12 1 0 4 49 58 71 58 54
0 0 0 0 0 0 0 0 0 0 0 0 0 0 0 2 3 2 0 0 6 73 303 494 495 367 213 205 251 143 71 36 32 21 32 8 0 9 57 40 19 75 53
0 0 0 0 0 0 0 0 0 0 0 0 0 0 0 2 3 2 1 0 0 21 40 201 261 346 349 295 189 99 46 31 26 4 5 94 13 18 42 33 110 102 77
0 0 0 0 0 0 0 0 0 0 0 0 0 0 0 0 0 0 3 2 1 8 13 3 145 126 233 314 282 48 14 87 145 56 3 19 33 8 97 69 156 130 67
0 0 0 0 0 0 0 0 0 0 0 0 0 0 0 0 0 0 0 2 4 5 13 1 1 2 2 8 55 45 7 28 21 37 28 36 96 34 36 231 177 122 96
0 0 0 0 0 0 0 0 0 0 0 0 0 0 0 0 0 0 0 0 2 3 14 22 12 3 2 0 0 0 9 0 14 73 124 90 163 90 34 48 200 126 104
0 0 0 0 0 0 0 0 0 0 0 0 0 0 0 0 0 0 0 0 0 0 4 15 27 36 9 3 1 0 0 0 0 27 98 104 86 157 137 76 57 173 129
0 0 0 0 0 0 0 0 0 0 0 0 0 0 0 0 0 0 0 0 0 0 2 2 4 16 21 14 6 0 0 0 0 9 109 150 134 81 71 79 86 59 108
0 0 0 0 0 0 0 0 0 0 0 0 0 0 0 0 0 0 0 0 0 0 0 3 1 12 17 23 20 17 11 4 15 9 25 79 117 148 92 84 79 70 68
0 0 0 0 0 0 0 0 0 0 0 0 0 0 0 0 0 0 0 0 0 0 1 0 1 0 7 16 22 14 18 15 14 30 22 35 47 89 111 120 114 68 56
0 0 0 0 0 0 0 0 0 0 0 0 0 0 0 0 0 0 0 0 0 0 1 1 2 2 0 24 17 22 16 3 0 0 5 10 4 70 64 199 116 102 80
0 0 0 0 0 0 0 0 0 0 0 0 0 0 0 0 0 0 0 0 0 0 0 1 3 1 7 4 22 21 28 5 11 3 1 8 6 12 59 55 73 80 75
0 0 0 0 0 0 0 0 0 0 0 0 0 0 0 0 0 0 0 0 0 0 0 0 2 0 1 2 2 31 12 21 27 21 0 1 0 1 0 4 23 33 46
0 0 0 0 0 0 0 0 0 0 0 0 0 0 0 0 0 0 0 0 0 0 0 0 2 1 1 2 1 6 22 32 17 7 17 1 0 0 0 0 0 45 58
0 0 0 0 0 0 0 0 0 0 0 0 0 0 0 0 0 0 0 0 0 0 0 0 0 4 0 1 2 2 6 31 26 14 3 1 5 7 0 0 0 0 4
CIN
0 -16 -103 0 -6 -2 -4 -4 -3 -4 -5 -4 -2 -1 -1 -16 -51 -79 -82 -62 -19 -6 -3 -4 -2 -3 -2 -5 -7 -8 -3 -4 -2 0 -1 0 0 0 -4 -7 -2 0 0
-97 -23 -32 -127 -13 -4 -5 -6 -5 -7 -5 -2 -1 0 0 -29 -54 -59 -92 -63 -25 -3 -3 -6 -2 -4 -4 -7 -7 -1 -2 -6 -6 -7 -5 -2 -1 -2 -3 -5 -7 0 0
-44 -8 -2 -45 -36 -18 -12 -12 -10 -7 -6 -9 -1 -2 -2 -11 -7 -20 -50 -68 -51 -26 -3 -2 -5 -2 -1 -2 -14 -3 -1 -6 -13 -15 -21 -8 0 0 -2 -31 -12 0 0
-32 -13 -1 -9 -9 -5 -15 -20 -17 -10 -7 -7 -13 -4 -2 0 0 0 -1 -17 -44 -40 -24 -7 -1 -1 -6 -5 -9 0 -1 -8 -22 -46 -32 -14 -1 -4 -6 -27 0 0 -20
-92 -74 -42 -1 -1 -12 -8 -3 -4 -4 -6 -8 -6 -6 -7 -1 -1 -2 0 0 0 -16 -12 -3 -2 -1 -3 -24 -3 0 -1 -22 -28 -8 -14 -9 -2 -7 -11 -2 -5 -24 -46
0 -2 0 -86 -21 -15 0 0 0 -4 -3 -5 -7 -5 -3 -12 -22 -11 -2 -3 -2 -1 -1 -2 -5 -7 -2 -16 -14 0 -3 -36 -47 -14 -6 -5 -11 -6 -14 -2 -17 -31 -17
0 0 0 0 0 -76 -57 -22 0 0 -4 -5 -14 -21 -15 -5 -2 -12 -16 -19 -21 -14 -7 -7 -1 -5 -14 -6 -18 0 -23 -40 -23 -6 -4 -2 -1 -15 -15 -7 -2 -2 0
0 0 0 0 0 0 0 0 -37 -84 -7 0 -10 -20 -27 -47 -24 -10 -13 -18 -18 -16 -8 -13 -11 -7 -22 -12 -9 -8 -34 -47 -19 0 -1 -3 -14 -8 -13 -7 0 0 0
0 0 0 0 0 0 0 0 0 0 0 0 -20 -131 -74 -24 -60 -16 -16 -21 -19 -13 -6 -17 -19 -19 -19 -9 -10 -11 -27 -51 -17 0 0 0 -10 -2 0 0 0 0 0
0 0 0 0 0 0 0 0 0 0 0 0 0 0 -23 -49 -60 -7 -6 -4 -4 -12 -9 -11 -15 -22 -21 -10 -14 -11 0 0 0 0 0 -1 -11 0 0 -3 -1 0 0
0 0 0 0 0 0 0 0 0 0 0 0 0 0 -186 -115 -41 -21 -13 -12 -27 -17 -3 -12 -16 -18 -29 -26 -24 -20 -16 0 0 0 0 -1 0 -4 0 -3 0 0 0
0 0 0 0 0 0 0 0 0 0 0 0 0 0 0 -1 0 0 -7 -6 -9 -16 -14 -14 -10 -15 -17 -11 -29 -54 -39 -41 -35 -8 -1 -3 0 -6 -3 -2 -15 -2 0
0 0 0 0 0 0 0 0 0 0 0 0 0 -1 0 0 -1 0 0 0 -56 -10 -1 -1 -1 0 -14 0 0 -14 -37 -42 -49 -51 -18 -17 0 -7 -6 -8 -7 -17 0
0 0 0 0 0 0 0 0 0 0 0 0 0 0 0 0 0 0 0 0 0 -60 -32 -1 -3 -2 0 0 -15 -16 -19 -35 -45 -70 -78 -17 -24 -8 -13 -9 -11 -18 0
0 0 0 0 0 0 0 0 0 0 0 0 0 0 0 0 0 0 0 0 0 0 -47 -54 -18 -28 -6 -1 0 -6 -21 -1 -4 -11 -27 -31 -28 -46 -19 -14 -1 -3 0
0 0 0 0 0 0 0 0 0 0 0 0 0 0 0 0 0 0 0 0 0 0 -5 -11 0 -9 -125 -110 -51 -17 -45 -12 -25 -13 -24 -28 -9 -23 -32 -10 -3 -2 0
0 0 0 0 0 0 0 0 0 0 0 0 0 0 0 0 0 0 0 0 0 0 0 -2 -13 -19 -22 0 0 0 -21 -2 -39 -14 -6 -4 -5 -31 -21 -15 -1 -2 -1
0 0 0 0 0 0 0 0 0 0 0 0 0 0 0 0 0 0 0 0 0 0 -1 0 -3 0 -16 -11 0 0 0 0 0 -107 -59 -35 -13 -2 -18 -21 -27 -2 -2
0 0 0 0 0 0 0 0 0 0 0 0 0 0 0 0 0 0 0 0 0 0 -1 -3 -3 -2 -4 -3 -33 0 0 0 -37 -173 -91 -25 -22 -37 -22 -12 -13 -19 -11
0 0 0 0 0 0 0 0 0 0 0 0 0 0 0 0 0 0 0 0 0 0 0 -1 -1 -1 -3 -1 -1 -2 -1 -14 -139 -147 -154 -123 -26 -24 -23 -37 -20 -16 -19
0 0 0 0 0 0 0 0 0 0 0 0 0 0 0 0 0 0 0 0 0 0 0 0 0 -3 0 0 0 -5 -8 -6 -2 -125 -112 -127 -81 -35 -22 -25 -11 -14 -20
0 0 0 0 0 0 0 0 0 0 0 0 0 0 0 0 0 0 0 0 0 0 0 0 0 -1 -3 0 0 -1 0 -3 -5 -18 -62 -131 -61 -42 -24 -13 -29 -12 -15
0 0 0 0 0 0 0 0 0 0 0 0 0 0 0 0 0 0 0 0 0 0 0 0 -1 -1 0 -5 -2 -1 -2 -2 -5 -20 -45 -43 -73 -86 -74 -30 -58 -49 -13
0 0 0 0 0 0 0 0 0 0 0 0 0 0 0 0 0 0 0 0 0 0 0 0 0 -1 -2 -1 -7 -6 -8 -2 -1 0 0 -21 0 0 0 -75 -81 -104 -72
-1 0 0 0 0 0 0 0 0 0 0 0 0 0 0 0 0 0 0 0 0 0 0 0 0 0 0 0 0 -3 -4 -2 0 -1 -3 -8 0 0 0 0 0 -49 -68
0 0 0 0 0 0 0 0 0 0 0 0 0 0 0 0 0 0 0 0 0 0 0 0 0 0 -1 0 0 0 -2 0 -1 -9 -14 -9 -10 -6 0 0 0 0 -48
Wind_Speed
25 27 24 22 23 22 20 19 18 18 17 16 14 13 14 14 14 15 15 16 16 16 14 13 14 14 14 14 12 11 11 11 11 11 11 11 11 11 10 9 9 10 10
26 27 24 21 21 21 20 19 20 18 17 17 16 16 15 14 14 15 15 15 15 16 16 15 14 16 16 14 12 11 11 10 10 10 10 11 11 11 10 10 9 9 9
26 26 26 21 21 21 21 20 20 20 19 18 17 16 17 17 17 16 17 16 16 17 17 16 15 15 15 13 12 10 11 10 9 9 9 10 10 10 10 9 9 9 9
26 26 26 24 23 23 22 21 21 21 20 19 18 18 17 18 18 18 18 18 18 17 17 17 17 15 15 12 12 11 10 10 10 8 8 8 9 8 11 12 12 9 11
24 24 26 26 25 24 23 23 22 22 21 20 20 19 20 20 20 19 19 19 19 18 18 18 19 17 12 12 13 12 10 9 9 8 17 9 7 7 7 8 6 7 7
24 25 25 26 25 26 25 23 23 23 23 22 22 21 21 22 23 24 23 22 21 21 21 21 20 18 15 13 13 10 9 9 9 11 10 10 8 4 4 5 6 7 7
24 24 25 26 26 26 25 26 26 24 23 23 22 23 23 23 23 24 24 24 24 23 24 25 24 21 17 14 11 9 8 9 9 10 11 9 7 4 3 5 6 7 7
23 24 25 25 25 25 26 26 25 26 26 25 25 25 25 24 25 27 26 26 26 24 24 25 23 21 17 13 11 8 9 9 15 13 14 10 6 7 7 7 7 8 9
24 25 26 26 26 25 26 25 25 26 26 27 28 29 28 30 27 29 29 28 27 27 25 25 22 19 17 14 12 12 12 12 18 14 16 15 10 11 11 9 8 9 10
25 25 26 27 27 27 27 27 27 25 26 26 27 28 31 31 29 31 32 30 29 28 26 25 22 18 17 16 15 15 14 17 20 17 18 19 13 15 15 11 10 10 9
24 26 26 27 28 28 27 28 27 27 27 27 28 28 27 27 28 30 31 32 31 30 27 24 23 21 16 16 16 17 14 19 21 20 21 16 19 20 20 11 10 8 4
26 26 27 27 28 28 28 28 28 28 28 28 28 28 27 27 27 28 31 30 32 30 30 27 23 19 18 17 19 19 19 22 23 24 23 18 20 22 24 16 8 6 2
26 27 28 28 28 28 27 28 27 27 27 28 28 29 27 27 28 29 29 29 31 27 29 29 24 21 19 20 21 23 24 25 29 24 26 23 23 25 25 18 12 9 7
26 27 28 28 28 28 27 27 28 27 28 27 28 29 29 28 28 30 29 30 30 29 30 32 29 25 18 18 20 24 25 25 20 21 23 29 27 25 20 15 13 9 7
26 27 28 29 29 29 28 28 27 28 28 28 28 29 29 29 29 28 29 29 29 29 29 29 30 28 27 27 24 24 23 25 20 20 24 35 29 26 23 20 15 13 9
26 28 29 29 28 28 27 27 27 27 28 28 28 29 30 30 30 30 29 29 28 29 27 26 26 25 26 28 25 27 24 23 23 23 21 21 24 28 26 21 20 15 14
25 26 29 29 30 30 28 28 27 28 28 29 29 30 31 31 32 32 31 30 29 29 28 25 25 25 24 22 23 22 18 20 23 26 29 28 21 27 28 30 24 20 17
24 25 27 29 30 30 30 29 28 30 29 29 30 30 32 32 33 33 32 31 31 31 29 28 28 29 28 26 24 20 18 25 35 34 30 33 30 26 26 28 27 26 19
24 26 28 30 31 31 31 30 30 30 30 30 30 30 32 32 33 34 33 33 33 33 32 31 31 29 28 28 26 24 24 23 22 20 17 17 20 19 24 30 27 27 22
24 26 28 29 31 31 31 31 30 30 30 30 31 32 32 32 33 34 34 34 34 34 33 33 34 31 30 30 28 29 27 24 24 22 21 19 19 18 15 24 14 18 19
23 25 27 29 31 32 34 35 35 34 33 34 33 34 33 34 35 35 35 35 34 34 35 34 35 35 32 30 30 31 31 30 29 26 23 23 23 23 19 18 12 11 11
22 24 27 29 31 31 31 33 32 35 34 35 34 36 35 36 35 35 36 37 36 36 35 34 34 34 33 30 30 28 31 28 27 26 25 24 26 27 28 25 23 14 14
21 23 27 29 30 30 31 33 33 34 35 35 35 36 35 37 37 36 37 37 37 36 36 35 34 34 35 33 30 29 31 32 27 23 25 26 27 29 29 31 27 25 20
23 26 29 28 29 30 32 35 38 39 41 39 39 39 40 39 38 36 36 36 37 37 38 35 34 35 35 36 34 30 30 30 27 29 24 25 27 29 31 32 33 31 32
25 27 28 28 30 32 34 36 38 41 41 42 42 43 41 40 38 39 37 36 37 36 37 37 36 34 34 35 35 34 32 31 31 32 32 26 24 27 28 30 30 33 33
27 26 29 31 32 35 35 37 39 42 44 45 45 44 42 40 40 38 38 37 37 38 37 37 37 36 35 36 36 35 34 31 29 31 35 32 34 30 28 29 30 31 32
Wind_Direction
331 322 340 338 336 338 340 340 342 343 339 340 342 343 338 337 334 333 335 333 330 328 345 349 346 347 342 333 341 345 338 350 1 2 9 18 26 23 12 356 8 10 18
331 329 337 343 338 341 342 335 334 335 336 336 333 329 329 328 330 328 331 335 334 329 332 339 342 339 336 328 331 343 340 341 349 358 7 4 18 31 11 343 12 17 25
331 332 334 341 337 334 333 334 329 325 324 326 329 327 321 319 317 320 322 325 328 325 323 328 336 341 336 327 323 334 330 332 345 359 37 29 18 28 32 26 36 40 42
336 332 333 333 332 332 331 328 326 324 322 320 320 319 319 315 313 311 314 316 317 322 322 319 323 333 327 330 314 320 324 335 341 359 19 25 26 36 61 62 58 48 50
348 346 338 338 335 330 329 328 324 322 321 320 319 316 312 308 307 307 307 308 309 311 313 314 311 315 328 319 304 304 316 335 346 349 283 348 15 48 60 49 34 20 4
355 349 342 336 337 333 333 330 325 322 318 316 316 316 313 306 303 299 299 301 304 303 302 302 304 308 307 308 303 302 313 325 338 330 332 333 327 7 41 44 9 3 2
2 358 353 345 341 335 331 327 325 322 319 318 315 314 312 311 306 301 298 296 296 299 298 294 293 295 300 298 301 300 311 316 324 330 321 332 343 4 18 7 354 348 350
4 359 353 348 345 338 333 328 323 320 318 318 316 312 310 311 306 299 296 295 293 295 296 294 295 293 294 294 290 292 298 299 296 307 304 314 324 310 310 316 328 328 329
1 357 350 345 339 339 337 334 327 321 316 313 310 308 308 307 304 299 293 292 292 292 296 292 296 294 291 290 286 285 286 288 284 300 298 295 300 292 294 301 308 311 313
0 356 349 343 339 334 332 330 328 328 324 319 315 312 306 309 301 295 291 292 292 292 292 292 294 295 290 287 285 283 281 280 282 290 290 292 299 289 286 291 296 300 306
1 358 356 351 344 337 333 329 327 325 323 321 318 316 316 314 309 298 292 291 291 290 292 292 289 290 290 286 282 281 280 279 281 284 285 294 289 282 278 286 289 294 306
351 356 355 353 349 343 338 333 329 327 323 321 320 317 316 314 312 311 302 298 291 287 288 287 288 288 286 285 281 276 280 275 281 280 281 289 287 278 270 276 273 285 286
351 350 353 352 350 347 343 338 334 330 327 324 323 321 318 313 310 308 307 306 301 295 291 285 285 283 281 281 281 278 275 275 271 277 279 284 283 276 271 268 268 276 271
348 348 350 352 351 349 345 340 335 333 329 327 326 324 320 319 313 308 306 303 303 299 295 286 285 281 282 282 283 279 275 277 277 280 286 277 274 274 276 270 265 264 262
348 348 348 350 348 347 346 340 336 333 330 326 325 325 323 319 318 315 309 306 302 302 299 294 289 285 285 284 281 280 277 276 277 277 281 264 269 269 271 271 270 266 257
347 346 346 346 351 350 346 343 337 331 327 325 323 322 321 319 316 315 312 309 307 303 302 301 296 295 293 290 286 282 279 275 279 284 279 281 273 266 267 270 269 265 260
353 349 346 345 346 347 346 342 337 329 326 322 322 321 320 318 315 312 309 308 308 307 302 300 295 294 298 302 295 291 286 271 270 279 272 274 284 269 266 263 269 269 259
357 354 350 348 346 345 344 342 336 329 325 323 321 320 319 318 315 310 307 306 307 304 302 299 295 290 291 290 291 291 286 266 269 278 285 271 273 276 270 268 270 268 258
359 356 350 348 345 344 342 339 335 333 329 329 328 324 319 314 313 310 306 305 306 301 298 297 294 292 291 288 287 286 283 283 285 289 286 285 288 285 276 266 271 269 261
2 357 353 349 347 344 341 337 333 333 332 329 327 325 321 318 313 309 305 304 303 300 297 296 292 291 289 289 286 283 283 283 285 286 288 283 281 283 283 275 284 275 265
4 359 353 349 345 341 334 328 326 325 327 325 324 324 324 319 311 309 306 302 303 300 297 296 292 289 288 288 287 284 283 280 280 282 284 280 279 279 284 285 274 270 252
4 358 351 346 343 340 336 328 324 321 321 319 320 320 320 319 316 311 306 300 299 297 299 295 293 289 288 288 285 286 282 283 282 278 278 277 277 276 276 279 278 271 269
4 359 351 346 342 339 335 329 327 324 320 319 319 318 319 317 316 313 306 300 297 297 293 295 292 288 284 285 285 282 278 278 285 286 280 276 276 277 275 273 274 274 275
0 355 349 347 344 340 334 327 321 317 313 316 315 314 312 313 312 312 309 304 297 293 290 291 292 288 285 280 284 280 280 279 283 284 287 281 279 276 274 272 270 272 269
356 353 350 346 342 337 332 327 321 316 314 313 312 311 312 311 310 308 307 304 300 296 291 286 288 289 284 282 279 280 279 278 276 278 276 284 285 279 278 273 276 270 268
352 351 348 343 339 335 332 327 322 317 313 311 310 310 311 310 309 307 304 302 299 296 293 290 285 285 286 281 278 277 278 277 276 275 273 277 277 281 280 277 274 274 272